sat.trackr.live / text

‹ back to catalog

ONEWEB-0206

NORAD 48227 · 2021-031T

PAYLOAD ACTIVE UNKNOWN

§ Identity

Operator
Country
UK
Launch date
2021-04-25
Launch site
VOSTO
Launch vehicle
Mass (kg)
RCS (m²)

Purposes: comms

External: N2YO · Heavens-Above · Gunter

§ Orbital elements

Epoch: 2026-09-12T00:52:53.052096Z

Period
109.55 min
Inclination
87.8899°
Eccentricity
0.0002065
Mean motion
13.14501648 rev/d
Perigee alt
1,204.2 km
Apogee alt
1,207.4 km
Semi-major
7,583.9 km
B*
6.5242e-4
RAAN
272.3813°
Arg perigee
91.1626°
Mean anomaly
268.9740°
Rev number
25,963

§ Raw data

ONEWEB-02061 48227U 21031T   26255.03672514  .00000255  00000+0  65242-3 0  99912 48227  87.8899 272.3813 0002065  91.1626 268.9740 13.14501648259632

JSON: /api/v1/satellites/48227 · /tle

For live sub-satellite position, see the globe view (requires WebGL).

§ Visibility from observer

Set your observer location to see the next 7 days of passes ≥ 10°. The values pass through the URL so the page stays shareable.

No JS? Fill the form by hand. The geolocation button needs JavaScript.